STARLINK-32699 (62482 NORAD) Tracking and Keplerian Element Data

This shows tracking and keplerian element data for the satellite.

Feedback or suggestion? Click here.




ElementValue
Catalog62482
NameSTARLINK-32699
Epoch Orbit651
Epoch Day35.24306911
Epoch Year2025
RAAN110.2294
Inclination43.0034
Eccentricity0.0001282
Argument of Perigee258.0263
Mean Anonmoly102.045
Mean Motion15.40704034
Decay Rate3.024E-05
L11 62482U 24254W 25035.24306911 .00003024 00000+0 79607-4 0 9991
L22 62482 43.0034 110.2294 0001282 258.0263 102.0450 15.40704034 6518



Live tracking and technical data element details for STARLINK-32699 (NORAD 62482). STARLINK-32699 can be tracked NOW for your location showing map with azimuth and elevation plus other details from your city location.







IsCatalogInMostPopularTable: catalog: 62482, numindb: 26
Update: records affected: 1



GetName: 62482 STARLINK-32699

Hit Count: updated at: Mon, 19 May 2025 01:24:33 GMT